QPF
0.05 0.06 0.07 0.06 0.06 0.06 0.06 0.07 0.07 0.06 0.05 0.04 0.04 0.03 0.03 0.03 0.03 0.03 0.02 0.02 0.02 0.02 0.04 0.05 0.04 0.03 0.03 0.03 0.03 0.03 0.02 0.02 0.02 0.02 0.01 0.01 0.01 0.02
0.06 0.06 0.07 0.07 0.07 0.07 0.06 0.05 0.06 0.07 0.06 0.05 0.05 0.04 0.04 0.03 0.04 0.04 0.03 0.04 0.03 0.02 0.02 0.04 0.05 0.04 0.03 0.03 0.03 0.04 0.04 0.03 0.02 0.02 0.01 0.01 0.01 0.01
0.05 0.05 0.05 0.06 0.07 0.07 0.06 0.06 0.05 0.06 0.05 0.04 0.04 0.05 0.05 0.04 0.04 0.04 0.05 0.04 0.03 0.03 0.03 0.03 0.03 0.03 0.03 0.03 0.03 0.03 0.04 0.04 0.03 0.02 0.01 0.01 0.01 0.00
0.04 0.04 0.04 0.05 0.06 0.06 0.06 0.06 0.06 0.06 0.05 0.04 0.04 0.04 0.05 0.05 0.04 0.03 0.04 0.03 0.03 0.02 0.03 0.03 0.03 0.02 0.02 0.02 0.02 0.02 0.03 0.04 0.04 0.04 0.03 0.02 0.01 0.01
0.04 0.04 0.05 0.06 0.07 0.06 0.06 0.06 0.06 0.06 0.06 0.04 0.03 0.04 0.04 0.04 0.05 0.04 0.03 0.03 0.02 0.02 0.03 0.03 0.03 0.03 0.03 0.02 0.02 0.01 0.01 0.02 0.02 0.02 0.03 0.03 0.02 0.02
0.04 0.04 0.04 0.05 0.05 0.06 0.06 0.06 0.06 0.07 0.07 0.05 0.04 0.03 0.03 0.04 0.04 0.04 0.04 0.04 0.03 0.02 0.03 0.04 0.03 0.03 0.03 0.03 0.02 0.01 0.00 0.00 0.01 0.01 0.02 0.02 0.02 0.01
0.04 0.03 0.03 0.04 0.04 0.04 0.04 0.04 0.05 0.05 0.05 0.05 0.04 0.05 0.04 0.05 0.04 0.03 0.03 0.03 0.03 0.03 0.03 0.03 0.03 0.03 0.03 0.02 0.01 0.00 0.00 0.00 0.00 0.00 0.00 0.00 0.01 0.01
0.05 0.05 0.03 0.02 0.02 0.03 0.03 0.03 0.03 0.03 0.04 0.04 0.03 0.04 0.04 0.04 0.04 0.04 0.04 0.04 0.03 0.02 0.03 0.03 0.03 0.03 0.03 0.02 0.01 0.01 0.00 0.00 0.00 0.00 0.00 0.00 0.00 0.00
0.04 0.03 0.02 0.02 0.02 0.03 0.03 0.03 0.03 0.03 0.03 0.03 0.02 0.02 0.03 0.05 0.06 0.05 0.05 0.06 0.05 0.05 0.05 0.05 0.05 0.04 0.02 0.01 0.01 0.01 0.01 0.00 0.00 0.00 0.00 0.00 0.00 0.00
0.03 0.03 0.03 0.03 0.02 0.02 0.03 0.04 0.03 0.02 0.02 0.02 0.02 0.03 0.04 0.06 0.07 0.08 0.09 0.10 0.09 0.08 0.08 0.07 0.06 0.05 0.03 0.02 0.01 0.01 0.00 0.01 0.01 0.00 0.00 0.00 0.00 0.01
0.03 0.02 0.02 0.02 0.01 0.02 0.03 0.05 0.05 0.03 0.01 0.01 0.01 0.02 0.02 0.02 0.03 0.04 0.06 0.06 0.06 0.05 0.06 0.06 0.05 0.05 0.06 0.05 0.03 0.02 0.01 0.01 0.01 0.01 0.00 0.00 0.00 0.01
0.02 0.01 0.01 0.01 0.01 0.02 0.02 0.03 0.04 0.02 0.01 0.01 0.01 0.01 0.01 0.01 0.01 0.01 0.03 0.04 0.04 0.04 0.04 0.05 0.05 0.06 0.07 0.06 0.05 0.04 0.03 0.02 0.02 0.01 0.01 0.01 0.01 0.01
0.01 0.01 0.01 0.01 0.00 0.01 0.01 0.02 0.02 0.02 0.02 0.02 0.02 0.02 0.02 0.02 0.02 0.02 0.03 0.03 0.04 0.04 0.04 0.06 0.06 0.06 0.06 0.04 0.04 0.04 0.04 0.03 0.02 0.02 0.02 0.02 0.02 0.02
0.02 0.02 0.01 0.01 0.01 0.01 0.00 0.01 0.01 0.02 0.03 0.03 0.03 0.03 0.02 0.02 0.03 0.03 0.03 0.03 0.03 0.04 0.05 0.06 0.06 0.06 0.06 0.05 0.04 0.04 0.04 0.03 0.02 0.02 0.02 0.02 0.02 0.04
0.02 0.02 0.01 0.01 0.01 0.01 0.01 0.01 0.01 0.02 0.03 0.03 0.03 0.03 0.03 0.03 0.04 0.04 0.04 0.04 0.04 0.04 0.03 0.04 0.05 0.05 0.05 0.05 0.05 0.05 0.05 0.04 0.03 0.03 0.03 0.03 0.03 0.04
0.01 0.02 0.02 0.02 0.02 0.01 0.01 0.01 0.02 0.03 0.03 0.03 0.03 0.04 0.04 0.05 0.05 0.04 0.05 0.06 0.06 0.05 0.04 0.04 0.04 0.04 0.04 0.04 0.05 0.05 0.06 0.06 0.04 0.04 0.03 0.03 0.02 0.02
0.02 0.02 0.02 0.02 0.02 0.02 0.02 0.02 0.02 0.02 0.03 0.04 0.05 0.05 0.05 0.05 0.04 0.04 0.05 0.06 0.06 0.05 0.04 0.05 0.05 0.04 0.04 0.04 0.04 0.04 0.05 0.05 0.04 0.04 0.04 0.03 0.03 0.03
0.02 0.03 0.03 0.03 0.04 0.03 0.03 0.02 0.02 0.02 0.03 0.03 0.05 0.05 0.05 0.04 0.03 0.03 0.04 0.05 0.05 0.05 0.05 0.05 0.05 0.06 0.06 0.05 0.04 0.03 0.03 0.03 0.03 0.03 0.04 0.04 0.03 0.04
0.01 0.01 0.03 0.05 0.07 0.06 0.05 0.03 0.03 0.03 0.03 0.04 0.04 0.03 0.03 0.03 0.03 0.03 0.04 0.04 0.04 0.04 0.05 0.05 0.06 0.06 0.05 0.04 0.03 0.02 0.03 0.03 0.04 0.04 0.04 0.05 0.04 0.04
0.01 0.01 0.01 0.03 0.05 0.06 0.05 0.04 0.03 0.03 0.03 0.04 0.04 0.03 0.04 0.05 0.04 0.04 0.04 0.05 0.04 0.04 0.04 0.04 0.05 0.05 0.04 0.04 0.03 0.03 0.02 0.03 0.04 0.04 0.05 0.05 0.05 0.04
0.01 0.01 0.01 0.02 0.03 0.05 0.06 0.05 0.05 0.04 0.03 0.04 0.04 0.03 0.04 0.04 0.04 0.05 0.05 0.05 0.04 0.04 0.04 0.04 0.04 0.04 0.04 0.04 0.03 0.03 0.03 0.03 0.04 0.04 0.05 0.06 0.06 0.05
0.02 0.03 0.03 0.02 0.03 0.05 0.06 0.06 0.05 0.05 0.04 0.04 0.04 0.03 0.03 0.03 0.04 0.04 0.05 0.05 0.04 0.04 0.04 0.04 0.04 0.04 0.04 0.04 0.04 0.04 0.04 0.03 0.03 0.02 0.03 0.04 0.04 0.04
0.03 0.03 0.03 0.03 0.03 0.04 0.05 0.05 0.04 0.04 0.05 0.04 0.04 0.04 0.03 0.04 0.04 0.04 0.05 0.05 0.04 0.04 0.04 0.04 0.05 0.06 0.05 0.05 0.05 0.04 0.03 0.03 0.03 0.03 0.04 0.03 0.03 0.03
MSLP
1015.84 1015.77 1015.77 1015.84 1015.97 1016.14 1016.31 1016.45 1016.53 1016.53 1016.44 1016.30 1016.13 1015.99 1015.92 1015.97 1016.17 1016.51 1016.98 1017.55 1018.19 1018.83 1019.43 1019.98 1020.44 1020.83 1021.16 1021.43 1021.68 1021.91 1022.12 1022.32 1022.50 1022.65 1022.75 1022.79 1022.79 1022.75
1015.48 1015.38 1015.34 1015.38 1015.49 1015.65 1015.82 1015.97 1016.07 1016.11 1016.06 1015.96 1015.83 1015.72 1015.67 1015.73 1015.93 1016.27 1016.73 1017.30 1017.93 1018.58 1019.19 1019.76 1020.25 1020.66 1021.02 1021.31 1021.58 1021.81 1022.03 1022.22 1022.39 1022.51 1022.59 1022.62 1022.61 1022.56
1015.19 1015.06 1014.99 1015.00 1015.08 1015.22 1015.38 1015.55 1015.68 1015.75 1015.76 1015.71 1015.64 1015.58 1015.58 1015.67 1015.88 1016.22 1016.67 1017.22 1017.82 1018.44 1019.03 1019.57 1020.05 1020.47 1020.82 1021.13 1021.40 1021.64 1021.86 1022.05 1022.20 1022.32 1022.39 1022.41 1022.39 1022.34
1014.94 1014.79 1014.70 1014.67 1014.72 1014.84 1015.00 1015.17 1015.33 1015.45 1015.52 1015.54 1015.55 1015.56 1015.62 1015.76 1016.00 1016.34 1016.77 1017.28 1017.84 1018.39 1018.93 1019.42 1019.85 1020.23 1020.55 1020.85 1021.11 1021.35 1021.58 1021.78 1021.94 1022.06 1022.13 1022.16 1022.14 1022.09
1014.69 1014.53 1014.41 1014.36 1014.39 1014.49 1014.64 1014.82 1015.00 1015.16 1015.29 1015.40 1015.49 1015.59 1015.73 1015.92 1016.20 1016.55 1016.97 1017.43 1017.92 1018.40 1018.85 1019.25 1019.60 1019.91 1020.19 1020.44 1020.69 1020.94 1021.18 1021.39 1021.59 1021.73 1021.83 1021.88 1021.88 1021.84
1014.38 1014.21 1014.08 1014.02 1014.03 1014.11 1014.25 1014.43 1014.63 1014.82 1015.01 1015.19 1015.36 1015.55 1015.78 1016.04 1016.36 1016.74 1017.14 1017.57 1017.99 1018.37 1018.72 1019.01 1019.27 1019.49 1019.70 1019.91 1020.14 1020.38 1020.64 1020.90 1021.14 1021.34 1021.49 1021.58 1021.62 1021.60
1013.98 1013.81 1013.68 1013.60 1013.59 1013.66 1013.79 1013.96 1014.17 1014.39 1014.62 1014.85 1015.10 1015.36 1015.67 1016.00 1016.38 1016.78 1017.18 1017.58 1017.93 1018.24 1018.48 1018.67 1018.82 1018.95 1019.08 1019.24 1019.45 1019.70 1019.99 1020.29 1020.59 1020.87 1021.09 1021.25 1021.33 1021.35
1013.48 1013.32 1013.19 1013.11 1013.10 1013.16 1013.27 1013.43 1013.62 1013.84 1014.08 1014.35 1014.64 1014.97 1015.33 1015.73 1016.16 1016.59 1017.01 1017.39 1017.70 1017.94 1018.10 1018.20 1018.25 1018.30 1018.36 1018.48 1018.66 1018.92 1019.24 1019.60 1019.97 1020.32 1020.63 1020.86 1021.00 1021.06
1012.92 1012.76 1012.65 1012.59 1012.58 1012.63 1012.72 1012.85 1013.02 1013.21 1013.44 1013.71 1014.01 1014.37 1014.78 1015.22 1015.69 1016.16 1016.60 1016.97 1017.27 1017.47 1017.58 1017.61 1017.59 1017.57 1017.58 1017.65 1017.82 1018.08 1018.42 1018.83 1019.27 1019.70 1020.07 1020.37 1020.58 1020.68
1012.34 1012.22 1012.13 1012.09 1012.10 1012.14 1012.21 1012.31 1012.43 1012.58 1012.76 1012.99 1013.28 1013.63 1014.05 1014.52 1015.02 1015.51 1015.98 1016.38 1016.67 1016.87 1016.95 1016.94 1016.89 1016.82 1016.79 1016.83 1016.98 1017.23 1017.59 1018.03 1018.50 1018.98 1019.42 1019.77 1020.02 1020.15
1011.85 1011.76 1011.71 1011.70 1011.72 1011.75 1011.81 1011.86 1011.93 1012.01 1012.13 1012.30 1012.54 1012.86 1013.26 1013.73 1014.24 1014.76 1015.25 1015.68 1016.00 1016.20 1016.29 1016.28 1016.21 1016.12 1016.06 1016.07 1016.19 1016.42 1016.77 1017.21 1017.69 1018.19 1018.64 1019.02 1019.30 1019.46
1011.48 1011.43 1011.42 1011.44 1011.47 1011.51 1011.53 1011.55 1011.55 1011.56 1011.61 1011.70 1011.87 1012.14 1012.51 1012.95 1013.47 1014.00 1014.52 1014.97 1015.33 1015.56 1015.67 1015.68 1015.61 1015.51 1015.43 1015.41 1015.49 1015.69 1016.00 1016.40 1016.85 1017.33 1017.77 1018.15 1018.43 1018.59
1011.28 1011.26 1011.27 1011.31 1011.35 1011.38 1011.38 1011.35 1011.29 1011.24 1011.20 1011.22 1011.32 1011.53 1011.85 1012.27 1012.77 1013.31 1013.85 1014.33 1014.72 1014.99 1015.14 1015.17 1015.12 1015.02 1014.92 1014.87 1014.91 1015.05 1015.29 1015.63 1016.02 1016.43 1016.83 1017.17 1017.44 1017.60
1011.21 1011.19 1011.21 1011.25 1011.28 1011.29 1011.26 1011.19 1011.08 1010.97 1010.87 1010.83 1010.87 1011.03 1011.31 1011.70 1012.19 1012.73 1013.28 1013.79 1014.21 1014.52 1014.70 1014.76 1014.73 1014.64 1014.53 1014.45 1014.43 1014.50 1014.67 1014.91 1015.22 1015.55 1015.88 1016.17 1016.39 1016.55
1011.21 1011.17 1011.16 1011.17 1011.17 1011.14 1011.07 1010.96 1010.82 1010.67 1010.53 1010.45 1010.45 1010.58 1010.83 1011.20 1011.68 1012.21 1012.77 1013.30 1013.75 1014.09 1014.31 1014.41 1014.40 1014.32 1014.20 1014.10 1014.03 1014.03 1014.11 1014.27 1014.47 1014.71 1014.96 1015.19 1015.38 1015.52
1011.21 1011.10 1011.03 1010.98 1010.92 1010.84 1010.73 1010.58 1010.41 1010.23 1010.08 1009.98 1009.98 1010.09 1010.33 1010.69 1011.16 1011.70 1012.26 1012.80 1013.28 1013.65 1013.91 1014.03 1014.06 1013.99 1013.88 1013.76 1013.66 1013.61 1013.62 1013.69 1013.81 1013.96 1014.14 1014.31 1014.46 1014.59
1011.12 1010.92 1010.76 1010.62 1010.48 1010.34 1010.17 1009.99 1009.79 1009.60 1009.45 1009.36 1009.36 1009.48 1009.73 1010.10 1010.57 1011.11 1011.68 1012.23 1012.72 1013.12 1013.41 1013.58 1013.63 1013.61 1013.52 1013.40 1013.29 1013.21 1013.17 1013.18 1013.23 1013.32 1013.43 1013.55 1013.68 1013.80
1010.91 1010.61 1010.34 1010.09 1009.86 1009.64 1009.42 1009.19 1008.98 1008.79 1008.64 1008.56 1008.59 1008.73 1008.99 1009.36 1009.83 1010.38 1010.95 1011.51 1012.01 1012.44 1012.76 1012.97 1013.08 1013.10 1013.05 1012.97 1012.87 1012.79 1012.73 1012.71 1012.72 1012.77 1012.84 1012.94 1013.05 1013.17
1010.60 1010.20 1009.82 1009.47 1009.15 1008.85 1008.56 1008.30 1008.06 1007.86 1007.72 1007.66 1007.69 1007.84 1008.11 1008.49 1008.96 1009.49 1010.06 1010.62 1011.14 1011.59 1011.95 1012.22 1012.39 1012.47 1012.48 1012.45 1012.40 1012.34 1012.30 1012.28 1012.28 1012.31 1012.36 1012.43 1012.54 1012.66
1010.26 1009.77 1009.31 1008.87 1008.47 1008.09 1007.75 1007.44 1007.17 1006.95 1006.80 1006.73 1006.77 1006.91 1007.17 1007.53 1007.98 1008.50 1009.05 1009.61 1010.14 1010.61 1011.02 1011.34 1011.57 1011.73 1011.82 1011.87 1011.88 1011.87 1011.87 1011.86 1011.87 1011.89 1011.94 1012.00 1012.10 1012.22
1009.96 1009.43 1008.91 1008.41 1007.95 1007.52 1007.12 1006.76 1006.45 1006.20 1006.02 1005.93 1005.93 1006.04 1006.26 1006.58 1006.99 1007.47 1007.99 1008.53 1009.06 1009.56 1010.00 1010.38 1010.69 1010.94 1011.12 1011.24 1011.33 1011.39 1011.43 1011.45 1011.48 1011.51 1011.54 1011.60 1011.68 1011.79
1009.79 1009.25 1008.72 1008.20 1007.70 1007.23 1006.79 1006.39 1006.03 1005.73 1005.49 1005.34 1005.28 1005.32 1005.47 1005.72 1006.06 1006.48 1006.96 1007.47 1008.00 1008.51 1008.99 1009.43 1009.81 1010.13 1010.40 1010.62 1010.78 1010.90 1010.99 1011.05 1011.09 1011.12 1011.15 1011.18 1011.24 1011.34
1009.80 1009.29 1008.78 1008.27 1007.77 1007.28 1006.81 1006.36 1005.94 1005.57 1005.26 1005.02 1004.87 1004.82 1004.87 1005.02 1005.28 1005.62 1006.03 1006.51 1007.01 1007.53 1008.04 1008.52 1008.97 1009.37 1009.72 1010.01 1010.24 1010.42 1010.55 1010.64 1010.69 1010.72 1010.73 1010.75 1010.77 1010.83
Thickness
5681 5679 5679 5680 5678 5678 5678 5676 5672 5671 5675 5679 5679 5681 5679 5679 5678 5678 5678 5677 5675 5674 5673 5673 5671 5670 5668 5667 5666 5665 5664 5663 5663 5662 5662 5662 5662 5662
5675 5674 5673 5674 5673 5672 5672 5671 5670 5667 5668 5674 5673 5676 5673 5674 5672 5671 5672 5671 5669 5669 5668 5667 5666 5664 5663 5662 5661 5660 5659 5658 5657 5657 5657 5657 5657 5657
5670 5669 5667 5667 5667 5667 5666 5665 5664 5663 5661 5665 5667 5668 5666 5665 5665 5665 5666 5665 5666 5664 5662 5661 5660 5659 5658 5656 5655 5654 5653 5652 5652 5652 5652 5652 5652 5652
5664 5663 5662 5662 5660 5660 5660 5659 5658 5657 5656 5656 5658 5659 5659 5659 5658 5658 5660 5661 5661 5659 5657 5655 5654 5653 5652 5651 5649 5649 5648 5647 5647 5647 5647 5647 5647 5647
5659 5657 5656 5655 5653 5654 5653 5653 5652 5652 5651 5651 5651 5651 5652 5653 5651 5651 5653 5652 5654 5654 5651 5650 5648 5647 5646 5645 5644 5643 5643 5643 5643 5643 5643 5643 5643 5643
5654 5652 5651 5649 5648 5647 5647 5645 5645 5644 5644 5644 5645 5645 5645 5646 5644 5644 5645 5646 5647 5648 5647 5646 5644 5642 5642 5641 5640 5639 5639 5638 5638 5638 5638 5638 5638 5639
5649 5648 5646 5644 5642 5640 5641 5640 5639 5638 5638 5638 5638 5638 5639 5637 5637 5638 5638 5639 5640 5641 5641 5641 5641 5640 5639 5637 5636 5635 5635 5634 5634 5634 5634 5634 5634 5634
5645 5643 5642 5640 5636 5633 5632 5630 5629 5630 5630 5630 5631 5630 5629 5631 5630 5631 5631 5631 5632 5636 5634 5634 5636 5636 5637 5637 5635 5633 5631 5630 5629 5629 5629 5629 5629 5629
5641 5638 5638 5637 5632 5631 5627 5624 5622 5620 5619 5621 5623 5624 5624 5624 5622 5623 5623 5623 5624 5627 5626 5627 5630 5630 5632 5635 5632 5629 5627 5626 5625 5624 5624 5623 5624 5624
5636 5634 5631 5629 5627 5625 5624 5622 5620 5618 5616 5615 5616 5617 5617 5617 5616 5615 5615 5616 5617 5620 5620 5620 5624 5625 5627 5628 5627 5625 5623 5621 5620 5619 5619 5618 5618 5618
5631 5629 5627 5624 5619 5615 5615 5615 5614 5613 5612 5610 5609 5609 5608 5607 5607 5608 5609 5610 5611 5615 5615 5614 5617 5619 5620 5621 5621 5619 5618 5617 5616 5615 5614 5613 5612 5611
5627 5625 5620 5617 5612 5608 5608 5608 5607 5608 5608 5608 5605 5603 5603 5603 5601 5601 5604 5604 5606 5608 5610 5608 5610 5611 5613 5617 5617 5615 5613 5612 5611 5610 5608 5607 5605 5604
5623 5621 5618 5610 5606 5602 5600 5601 5601 5600 5601 5602 5602 5603 5602 5601 5600 5599 5598 5598 5600 5602 5605 5602 5603 5604 5605 5608 5610 5611 5610 5609 5607 5606 5604 5602 5600 5598
5616 5616 5613 5604 5599 5596 5594 5595 5593 5591 5595 5597 5598 5598 5598 5598 5597 5596 5594 5593 5593 5594 5595 5594 5595 5595 5597 5599 5601 5604 5604 5604 5604 5603 5601 5598 5595 5594
5609 5606 5601 5597 5593 5592 5590 5589 5588 5590 5592 5593 5593 5595 5595 5594 5593 5590 5589 5588 5587 5588 5590 5589 5588 5589 5589 5591 5594 5595 5596 5597 5598 5597 5596 5595 5594 5592
5601 5599 5593 5590 5588 5588 5588 5587 5587 5588 5588 5588 5590 5590 5589 5588 5587 5586 5585 5584 5583 5584 5585 5583 5582 5582 5583 5585 5587 5588 5589 5590 5591 5591 5590 5590 5590 5590
5595 5594 5593 5592 5590 5589 5588 5588 5586 5585 5584 5584 5584 5583 5583 5583 5582 5580 5579 5578 5578 5579 5579 5578 5577 5577 5577 5577 5579 5582 5583 5584 5584 5584 5582 5583 5585 5587
5586 5591 5591 5590 5589 5587 5586 5584 5583 5581 5580 5579 5578 5577 5577 5577 5576 5575 5574 5573 5573 5573 5573 5572 5571 5571 5571 5573 5573 5575 5576 5577 5578 5577 5577 5577 5580 5582
5583 5587 5587 5585 5585 5583 5582 5580 5579 5577 5575 5573 5572 5571 5570 5570 5569 5568 5568 5567 5567 5568 5568 5567 5566 5565 5565 5567 5570 5566 5569 5571 5571 5572 5573 5573 5575 5577
5583 5583 5582 5581 5580 5578 5576 5575 5573 5572 5570 5567 5566 5565 5564 5564 5563 5562 5562 5561 5561 5560 5561 5561 5560 5560 5559 5560 5561 5562 5561 5564 5564 5565 5566 5567 5569 5569
5581 5580 5579 5578 5576 5573 5571 5568 5567 5566 5564 5562 5561 5560 5559 5559 5558 5558 5557 5554 5552 5554 5554 5555 5555 5552 5553 5553 5554 5556 5557 5555 5557 5557 5559 5561 5563 5565
5576 5575 5574 5572 5570 5568 5565 5563 5562 5561 5559 5558 5556 5555 5554 5554 5553 5551 5551 5550 5550 5549 5549 5550 5549 5548 5548 5548 5549 5551 5551 5550 5550 5549 5550 5552 5557 5560
5571 5569 5568 5567 5565 5562 5561 5559 5557 5557 5555 5554 5553 5552 5551 5549 5548 5547 5546 5545 5545 5544 5544 5544 5543 5543 5543 5543 5543 5544 5544 5545 5546 5547 5547 5547 5548 5549